(125204) = 2001 UE144

Discovered at Socorro on 2001-10-23 by LINEAR.

Orbit

Orbit type: Main Belt

Note: WebGL enabled browser required.

epoch2024-03-31.0
epoch JD2460400.5
perihelion date2024-02-27.08278
perihelion JD2460367.58278
argument of perihelion (°)353.75923
ascending node (°)202.15430
inclination (°)8.55078
eccentricity0.1024983
perihelion distance (AU)2.3081851
Tisserand w.r.t. Jupiter3.4
ΔV w.r.t. Earth (km/sec)9.9
semimajor axis (AU)2.5717891
mean anomaly (°)7.86636
mean daily motion (°/day)0.23897410
aphelion distance (AU)2.835
period (years)4.12
P-vector [x]-0.96122095
P-vector [y]-0.24615837
P-vector [z]-0.12433960
Q-vector [x]0.27001936
Q-vector [y]-0.93172501
Q-vector [z]-0.24285396
absolute magnitude15.96
phase slope0.15
uncertainty0
referenceMPEC 2024-F07
observations used710
oppositions16
arc length (days)12017
first opposition used1991
last opposition used2024
residual rms (arc-secs)0.72
perturbers coarse indicatorM-v
perturbers precise indicator003Ek
first observation date used1991-04-22.0
last observation date used2024-03-16.0
computer nameMPCLINUX
JD of orbit computation2456966.872720
perihelion JD uncertainty (days)2.4656E-04
argument of perihelion uncertainty (°)5.8588E-05
ascending node uncertainty (°)3.6438E-05
inclination uncertainty (°)9.8661E-06
eccentricity uncertainty 1.3557E-07
perihelion distance uncertainty (AU)3.5981E-07
Minimum Orbit Intersection Distances (in AU)
for orbit epoch: 2460400.5, reference: E2024-GB3
Mercury1.879
Venus1.58882
Earth1.30687
Mars0.67888
Jupiter2.12006
Saturn6.35771
Uranus16.1058
Neptune26.996

Observations

733 total observations over interval: 1991 04 22.27328 – 2024 03 16.571694
These data are available for download (format description).

Date (UT) J2000 RA J2000 Dec Magn Location Ref
1991 04 22.27328 14 12 30.64 -10 23 40.2 19.7 V 691 – Steward Observatory, Kitt Peak-Spacewatch MPS 78146
1991 04 22.29364 14 12 29.59 -10 23 29.5 19.7 V 691 – Steward Observatory, Kitt Peak-Spacewatch MPS 78146
1991 04 22.31410 14 12 28.59 -10 23 18.0 19.8 V 691 – Steward Observatory, Kitt Peak-Spacewatch MPS 78146
2001 10 11.35037 03 12 51.01 +14 14 11.4 20.8 V 691 – Steward Observatory, Kitt Peak-Spacewatch MPS 44594
2001 10 11.37251 03 12 50.25 +14 14 04.2 21.1 V 691 – Steward Observatory, Kitt Peak-Spacewatch MPS 44594
2001 10 11.39441 03 12 49.45 +14 13 56.6 20.9 V 691 – Steward Observatory, Kitt Peak-Spacewatch MPS 44594
2001 10 23.34685 03 04 39.02 +13 00 08.9 19.4   704 – Lincoln Laboratory ETS, New Mexico MPS 41225
2001 10 23.36324 03 04 38.26 +13 00 02.4 20.0   704 – Lincoln Laboratory ETS, New Mexico MPS 41225
2001 10 23.39605 03 04 36.64 +12 59 49.2 19.6   704 – Lincoln Laboratory ETS, New Mexico MPS 41225
2001 10 24.33180 03 03 52.17 +12 53 40.2 19.5   704 – Lincoln Laboratory ETS, New Mexico MPS 41226
2001 10 24.34818 03 03 51.39 +12 53 33.3 20.0   704 – Lincoln Laboratory ETS, New Mexico MPS 41226
2001 10 24.36458 03 03 50.50 +12 53 27.2 20.0   704 – Lincoln Laboratory ETS, New Mexico MPS 41226
2001 10 24.38097 03 03 49.74 +12 53 20.0 20.1   704 – Lincoln Laboratory ETS, New Mexico MPS 41226
2001 10 24.39736 03 03 48.88 +12 53 13.7 20.0   704 – Lincoln Laboratory ETS, New Mexico MPS 41226
2001 11 11.30934 02 48 15.29 +10 53 21.1 20.0   704 – Lincoln Laboratory ETS, New Mexico MPS 44594
2001 11 11.32373 02 48 14.42 +10 53 15.6 20.1   704 – Lincoln Laboratory ETS, New Mexico MPS 44594
2001 11 11.33814 02 48 13.68 +10 53 08.9 20.6   704 – Lincoln Laboratory ETS, New Mexico MPS 44594
2001 11 20.21775 02 40 40.57 +09 58 53.4 19.5   704 – Lincoln Laboratory ETS, New Mexico MPS 44594
2001 11 20.23243 02 40 39.81 +09 58 48.6 19.9   704 – Lincoln Laboratory ETS, New Mexico MPS 44594
2001 11 20.24732 02 40 39.07 +09 58 43.3 19.8   704 – Lincoln Laboratory ETS, New Mexico MPS 44594
2001 11 20.26201 02 40 38.37 +09 58 37.9 19.6   704 – Lincoln Laboratory ETS, New Mexico MPS 44594
2001 11 20.27671 02 40 37.60 +09 58 33.2 20.0   704 – Lincoln Laboratory ETS, New Mexico MPS 44594
2003 01 14.52602 10 45 48.06 -03 23 28.1 19.6   644 – Palomar Mountain/NEAT MPS 76011
2003 01 14.54714 10 45 48.01 -03 23 30.9 19.9   644 – Palomar Mountain/NEAT MPS 76011
2003 01 14.56855 10 45 47.86 -03 23 32.7 20.2   644 – Palomar Mountain/NEAT MPS 76011
2003 03 07.23986 10 15 12.81 +00 15 21.8 18.4   704 – Lincoln Laboratory ETS, New Mexico MPS 74109
2003 03 07.25282 10 15 12.24 +00 15 28.0 18.9   704 – Lincoln Laboratory ETS, New Mexico MPS 74109
2003 03 07.26587 10 15 11.63 +00 15 35.6 18.6   704 – Lincoln Laboratory ETS, New Mexico MPS 74109
2003 03 07.27883 10 15 10.99 +00 15 41.5 18.7   704 – Lincoln Laboratory ETS, New Mexico MPS 74109
2003 03 10.20782 10 12 59.73 +00 41 15.1 18.6 R 699 – Lowell Observatory-LONEOS MPS 74109
2003 03 10.22527 10 12 58.83 +00 41 23.9   699 – Lowell Observatory-LONEOS MPS 74109
2003 03 10.24276 10 12 58.09 +00 41 33.1   699 – Lowell Observatory-LONEOS MPS 74109
2003 03 10.26020 10 12 57.36 +00 41 42.2   699 – Lowell Observatory-LONEOS MPS 74109
2003 03 26.17459 10 03 56.80 +02 57 05.4 20.1 R 683 – Goodricke-Pigott Observatory, Tucson MPS 76011
2003 03 26.18577 10 03 56.62 +02 57 09.7 20.4 R 683 – Goodricke-Pigott Observatory, Tucson MPS 76011
2003 03 26.19914 10 03 56.34 +02 57 14.1 20.1 R 683 – Goodricke-Pigott Observatory, Tucson MPS 76011
2003 03 26.21325 10 03 55.82 +02 57 21.6 18.7 R 699 – Lowell Observatory-LONEOS MPS 76011
2003 03 26.22936 10 03 55.47 +02 57 30.1   699 – Lowell Observatory-LONEOS MPS 76011
2003 03 26.24539 10 03 55.10 +02 57 36.4   699 – Lowell Observatory-LONEOS MPS 76011
2003 03 26.26134 10 03 54.72 +02 57 44.6   699 – Lowell Observatory-LONEOS MPS 76011
2005 10 05.25751 02 21 03.12 +12 38 04.7 19.0   704 – Lincoln Laboratory ETS, New Mexico MPS 143696
2005 10 05.26851 02 21 02.71 +12 38 01.6 20.1   704 – Lincoln Laboratory ETS, New Mexico MPS 143696
2005 10 05.27949 02 21 02.33 +12 37 56.3 19.7   704 – Lincoln Laboratory ETS, New Mexico MPS 143696
2005 10 05.29050 02 21 01.76 +12 37 53.8 20.0   704 – Lincoln Laboratory ETS, New Mexico MPS 143696
2005 10 05.30211 02 21 01.26 +12 37 48.4 20.2   704 – Lincoln Laboratory ETS, New Mexico MPS 143696
2005 10 24.82574 02 05 39.72 +10 19 32.2 18.7 V A50 – Andrushivka Astronomical Observatory MPS 147334
2005 10 28.26431 02 02 42.70 +09 54 05.0 19.8   704 – Lincoln Laboratory ETS, New Mexico MPS 147334
2005 10 28.27356 02 02 42.07 +09 54 00.3 19.0 V 703 – Catalina Sky Survey MPS 145931
2005 10 28.27637 02 02 41.97 +09 53 59.1 19.8   704 – Lincoln Laboratory ETS, New Mexico MPS 147334
2005 10 28.27891 02 02 41.85 +09 53 56.2 19.1 V 703 – Catalina Sky Survey MPS 145931
2005 10 28.28183 02 02 41.74 +09 53 54.9 19.4 V G96 – Mt. Lemmon Survey MPS 145931
2005 10 28.28428 02 02 41.64 +09 53 53.7 19.3 V 703 – Catalina Sky Survey MPS 145931
2005 10 28.28749 02 02 41.46 +09 53 52.3 19.3 V G96 – Mt. Lemmon Survey MPS 145931
2005 10 28.28822 02 02 41.31 +09 53 53.5 20.1   704 – Lincoln Laboratory ETS, New Mexico MPS 147334
2005 10 28.28965 02 02 41.28 +09 53 51.8 19.5 V 703 – Catalina Sky Survey MPS 145931
2005 10 28.29314 02 02 41.13 +09 53 49.9 19.4 V G96 – Mt. Lemmon Survey MPS 145931
2005 10 28.29870 02 02 40.84 +09 53 47.5 19.2 V G96 – Mt. Lemmon Survey MPS 145931
2005 10 29.37368 02 01 45.62 +09 45 51.4 19.2 V G96 – Mt. Lemmon Survey MPS 147334
2005 10 29.37552 02 01 45.51 +09 45 50.6 19.9 V G96 – Mt. Lemmon Survey MPS 147334
2005 10 29.37730 02 01 45.44 +09 45 49.9 19.6 V G96 – Mt. Lemmon Survey MPS 147334
2005 10 29.37907 02 01 45.33 +09 45 48.9 19.3 V G96 – Mt. Lemmon Survey MPS 147334
2005 10 31.28172 02 00 08.60 +09 31 54.5 19.1   704 – Lincoln Laboratory ETS, New Mexico MPS 147334
2005 10 31.30554 02 00 07.32 +09 31 44.3 19.7   704 – Lincoln Laboratory ETS, New Mexico MPS 147334
2005 10 31.32937 02 00 06.10 +09 31 32.2 19.3   704 – Lincoln Laboratory ETS, New Mexico MPS 147334
2005 11 09.31208 01 52 51.67 +08 28 58.4 19.9 V 703 – Catalina Sky Survey MPS 149324
2005 11 09.32322 01 52 51.09 +08 28 54.9 19.8 V 703 – Catalina Sky Survey MPS 149324
2005 11 09.33431 01 52 50.66 +08 28 49.9 20.1 V 703 – Catalina Sky Survey MPS 149324
2005 11 09.34538 01 52 50.12 +08 28 46.3 19.9 V 703 – Catalina Sky Survey MPS 149324
2005 12 01.19797 01 40 39.21 +06 38 03.9 20.8 V G96 – Mt. Lemmon Survey MPS 151915
2005 12 01.20598 01 40 39.03 +06 38 02.4 20.9 V G96 – Mt. Lemmon Survey MPS 151915
2005 12 01.21396 01 40 38.85 +06 38 00.4 21.1 V G96 – Mt. Lemmon Survey MPS 151915
2005 12 01.22197 01 40 38.71 +06 37 59.3 21.2 V G96 – Mt. Lemmon Survey MPS 151915
2007 01 28.32663 09 23 13.27 +01 46 22.4 19.8 V 703 – Catalina Sky Survey MPS 198571
2007 01 28.33317 09 23 12.91 +01 46 23.6 19.0 V 703 – Catalina Sky Survey MPS 198571
2007 01 28.33972 09 23 12.62 +01 46 25.1 19.3 V 703 – Catalina Sky Survey MPS 198571
2007 01 28.34627 09 23 12.30 +01 46 26.4 19.1 V 703 – Catalina Sky Survey MPS 198571
2007 02 06.36202 09 15 24.38 +02 28 15.8 18.4 R 644 – Palomar Mountain/NEAT MPS 199298
2007 02 06.38243 09 15 23.25 +02 28 22.3 18.4 R 644 – Palomar Mountain/NEAT MPS 199298
2007 02 06.40287 09 15 22.12 +02 28 29.0 19.0 R 644 – Palomar Mountain/NEAT MPS 199298
2007 02 10.26537 09 11 55.82 +02 50 44.9 19.3 V 703 – Catalina Sky Survey MPS 200169
2007 02 10.27178 09 11 55.46 +02 50 47.9 19.0 V 703 – Catalina Sky Survey MPS 200169
2007 02 10.27819 09 11 55.10 +02 50 51.0 19.4 V 703 – Catalina Sky Survey MPS 200169
2007 02 10.28463 09 11 54.70 +02 50 52.9 18.9 V 703 – Catalina Sky Survey MPS 200169
2007 02 15.33381 09 07 29.35 +03 23 10.1 18.2 V 703 – Catalina Sky Survey MPS 200169
2007 02 15.34009 09 07 28.88 +03 23 11.5 18.8 V 703 – Catalina Sky Survey MPS 200169
2007 02 15.34642 09 07 28.52 +03 23 15.1 19.1 V 703 – Catalina Sky Survey MPS 200169
2007 02 15.35270 09 07 28.20 +03 23 16.6 19.0 V 703 – Catalina Sky Survey MPS 200169
2007 02 16.24383 09 06 42.82 +03 29 17.3 18.6 R 644 – Palomar Mountain/NEAT MPS 201318
2007 02 16.26453 09 06 41.71 +03 29 25.8 18.5 R 644 – Palomar Mountain/NEAT MPS 201318
